星链-35473(STARLINK-35473)

导读

STARLINK-35473是由美国(US)发射的星链卫星,隶属于SpaceX公司的星链星座项目,于2025年10月8日发射升空。星链计划旨在构建全球卫星互联网星座,为全球偏远地区、海洋等网络覆盖薄弱区域提供高速低延迟的宽带互联网服务,该卫星入轨后将助力星链星座进一步完善全球服务覆盖能力。

Basic Information
目录编号:
65937
目录名称:
STARLINK-35473
国际标识:
2025-225AD
轨道中心:
EARTH
卫星名称:
星链-35473
卫星全名:
星链-35473(STARLINK-35473)
卫星状态:
在轨 (已飞行331 天)
发射日期:
2025-10-08 UTC
国别 :
美国 (US)
星等 :
--
Orbit Information
数据来源 国际轨道数据 AOE轨道数据
星历时间 2026-09-03T19:39:57+0800
18小时前
查看轨道信息
2026-09-01T23:00:00+0800
2天前
查看轨道信息
半长轴 6840.845km 6840.897km
偏心率 0.0001063 0.0000995
轨道倾角 53.159° 53.162°
近地点辐角 75.583° 14.698°
升交点赤经 57.410° 66.114°
平近点角 284.530° 139.525°
近地点 461.98km 462.079km
远地点 463.436km 463.441km
周期 93.848分钟 93.849分钟
每日圈数 15.343986 15.343811
Detailed Information
固有亮度:
5
最大亮度:
2.5
卫星平台:
Starlink V1.0
覆盖范围:
全球
运营商:
太空探索技术公司
运营商所在国:
美国
制造商(研发单位):
太空探索技术公司
制造商所在国:
美国
使用方式:
暂无
Satellite Introduction
Starlink 计划是 SpaceX 推出的全球卫星互联网项目,通过发射低轨道卫星,为全球尤其是偏远地区提供高速、低延迟的互联网服务。自 2019 年起,Starlink 已部署数千颗卫星,旨在缩小全球数字鸿沟,推动互联网普及。该项目还为军事、航空等行业提供通信支持,带来广泛经济效益。
2D Orbit Map
3D Orbit Map
Orbit Altitude Analysis Chart
Orbit Inclination Analysis Chart
Orbit Comprehensive Analysis Chart
View Comprehensive Chart
Conjunction Data List
Event ID Objects TCA Miss Dist (km) Collision Risk Probability Collision Risk Index (CRI) Action
CDM_260905-123606-476806-593721
2026-09-05T
12:36:37+0000
0.646 km
远距离
6.443388E-5 中风险 0.71
CDM_260905-105506-344706-593721
2026-09-05T
10:55:25+0000
1.137 km
极远距离
4.989827E-6 低风险 0.49
CDM_260905-122906-344706-593721
2026-09-05T
12:29:12+0000
1.181 km
极远距离
4.39511E-6 低风险 0.48
CDM_260905-110206-476806-593721
2026-09-05T
11:02:49+0000
1.569 km
极远距离
3.449904E-6 低风险 0.46
CDM_260905-144505-687406-593721
2026-09-05T
14:45:37+0000
2.943 km
极远距离
7.862574E-7 极低风险 0.33
CDM_260905-092106-344706-593721
2026-09-05T
09:21:37+0000
2.816 km
极远距离
5.37433E-7 极低风险 0.3